Preview of NWS' New Version of Forecast
This preview is not operational and should not be used for support decisions.
Latest weather observations around

Topeka, Forbes Field (KFOE)

Using English Units (Switch to International System of Units)
Date/ Time (CDT) Wind (mph) Vis. (mi) Weather Sky Cond. Temp (°F) Rel. Humidity Wind Chill (°F) Heat Index (°F) Pressure Precip. (in)
Air Dwpt 6 hour Altimeter (inHg) Sea level (inHg) 1 hr 3 hr 6 hr
Max Min
May 20 07:53 ENE 8 10 Clear CLR 52 43     71%     30.07 30.06      
May 20 06:53 Calm 10 Clear CLR 49 44     83%     30.07 30.06      
May 20 05:53 Calm 10 Clear CLR 46 42     86%     30.07 30.06      
May 20 04:53 Calm 10 Clear CLR 48 42     80%     30.07 30.06      
May 20 03:53 NNE 5 10 Clear CLR 50 41     71%     30.07 30.06      
May 20 02:53 NNE 6 10 Clear CLR 51 41     68%     30.05 30.04      
May 20 01:53 NNE 8 10 Clear CLR 53 42     66%     30.04 30.03      
May 20 00:53 N 8 10 Clear CLR 54 43     66%     30.04 30.03      
May 19 23:53 N 9 10 Clear CLR 56 46     69%     30.02 30.01      
May 19 22:53 NW 3 10 Clear CLR 55 49     80%     30.01 30      
May 19 21:53 WNW 6 10 Clear CLR 56 47     72%     29.99 29.98      
May 19 20:53 W 3 10 Clear CLR 58 50     75%     29.96 29.96      
May 19 19:53 WNW 6 10 Clear CLR 61 47     60%     29.94 29.93      
May 19 18:53 W 10 10 Clear CLR 65 46     50%     29.93 29.92      
May 19 17:53 WNW 13 10 Clear CLR 67 46     47%     29.93 29.92      
May 19 16:53 WNW 15 10 Clear CLR 66 46     48%     29.93 29.91      
May 19 15:53 WNW 17 10 Partly Cloudy SCT044 67 48     51%     29.93 29.91      
May 19 14:53 WNW 17 10 Mostly Cloudy BKN040 65 48     54%     29.91 29.9      
May 19 13:53 NW 17 10 Mostly Cloudy BKN037 65 49     56%     29.91 29.89      
May 19 12:53 WNW 15 10 Mostly Cloudy BKN035 65 49     56%     29.88 29.87     0
May 19 11:53 WNW 17 10 Partly Cloudy SCT036 SCT042 63 49     60%     29.86 29.84      
May 19 10:53 WNW 20 10 Partly Cloudy and Windy SCT031 62 49     62%     29.84 29.82      
May 19 09:53 WNW 17 10 Mostly Clear FEW024 61 50     67%     29.81 29.79   0  
May 19 09:16 WNW 23 10 Partly Cloudy and Windy SCT022 59 49     69%     29.78        
May 19 08:53 WNW 16 10 Mostly Cloudy BKN021 58 51     78%     29.78 29.77      
May 19 08:48 WNW 16 10 Mostly Cloudy BKN021 57 52     82%     29.77        
May 19 08:06 WNW 15 10 Partly Cloudy SCT027 SCT035 58 52     81%     29.75        
May 19 07:53 NW 14 10 Cloudy FEW021 BKN027 OVC035 56 51     84%     29.74 29.73 0    
May 19 07:34 WNW 17 10 Cloudy BKN015 OVC023 56 52     87%     29.73   0    
May 19 06:53 NW 17 9 Cloudy BKN010 BKN014 OVC037 57 54     89%     29.69 29.68 0   0
May 19 05:53 NW 18 10 Cloudy BKN013 BKN021 OVC033 59 56     90%     29.64 29.62      
May 19 05:36 WNW 18 10 Cloudy SCT011 BKN023 OVC036 59 56     90%     29.63        
May 19 05:09 WNW 10 10 Cloudy BKN009 BKN015 OVC026 57 55     93%     29.62        
May 19 05:00 W 9 10 Cloudy SCT009 BKN018 OVC024 57 54     89%     29.61        
May 19 04:53 W 8 10 Cloudy SCT019 OVC024 57 54     89%     29.61 29.59      
May 19 04:10 SW 6 10 Mostly Cloudy BKN019 56 53     90%     29.59        
May 19 03:53 SW 7 10 Mostly Clear FEW009 55 52     89%     29.58 29.56   0  
May 19 03:51 SW 6 10 Mostly Clear FEW009 55 52     88%     29.57        
May 19 02:53 SW 11 10 Cloudy FEW012 SCT019 OVC031 57 53     87%     29.59 29.57      
May 19 02:42 SW 13 10 Cloudy SCT010 BKN018 OVC025 57 53     87%     29.58        
May 19 02:29 SW 16 10 Cloudy BKN010 OVC017 57 54     89%     29.59        
May 19 01:53 NE 3 10 Mostly Cloudy SCT012 BKN020 58 55     90%     29.56 29.54 0    
May 19 01:31   10 Mostly Cloudy BKN013 BKN018 58 55     90%     29.57   0    
May 19 01:00 W 9 10 Light Rain BKN075 OVC090 59 55     87%     29.57   0    
May 19 00:53 N 8 10 Light Rain FEW047 BKN080 OVC095 58 55     90%     29.52   0   0
May 19 00:40 NNE 6 8 Thunderstorms and Rain FEW011 SCT048 OVC075 59 57     93%     29.57   0    
May 19 00:33 NE 8 2.5 Thunderstorms and Rain and Fog/Mist FEW011 BKN048 OVC070 59 57     93%     29.59   0    
May 19 00:26 NW 8 3 Thunderstorms and Heavy Rain and Fog/Mist FEW011 BKN039 OVC060 60 57     90%     29.6   0    
May 19 00:21 WSW 14 5 Rain and Fog/Mist FEW011 BKN036 OVC060 61 58     90%     29.63   0    
May 19 00:12 SW 9 4 Thunderstorms and Rain and Fog/Mist FEW009 BKN055 OVC070 63 60     90%     29.62   0    
May 19 00:09 SW 6 2.5 Thunderstorms and Rain and Fog/Mist FEW036 SCT055 OVC065 63 60     90%     29.61   0    
May 18 23:53 S 5 10 Thunderstorms and Rain FEW009 OVC070 63 60     90%     29.6 29.58 0    
May 18 23:44 S 3 10 Cloudy FEW009 OVC075 63 60     90%     29.61   0    
May 18 23:34 SE 5 10 Cloudy SCT008 SCT065 OVC080 63 60     90%     29.6   0    
May 18 22:53 S 5 10 Cloudy OVC065 63 60     90%     29.61 29.59      
May 18 21:53 SE 6 10 Cloudy OVC065 63 60     90%     29.6 29.58      
May 18 20:53 SSE 8 10 Clear CLR 62 59     90%     29.58 29.56      
May 18 19:53 ESE 6 10 Clear CLR 64 59     84%     29.58 29.57      
May 18 18:53 NE 5 10 Clear CLR 65 60     84%     29.6 29.58     0
May 18 18:15 N 6 10 Cloudy FEW012 BKN034 OVC065 66 60     81%     29.62        
May 18 17:53 NNW 5 10 Cloudy BKN012 OVC049 66 61     84%     29.63 29.61      
May 18 17:24 Calm 10 Cloudy BKN010 OVC020 66 60     81%     29.61        
May 18 17:01 Calm 10 Mostly Cloudy BKN008 BKN110 66 61     84%     29.61        
May 18 16:53 Calm 10 Mostly Cloudy SCT006 BKN032 BKN090 65 62     90%     29.6 29.57 0    
May 18 16:13 E 7 6 Light Rain and Fog/Mist SCT008 OVC100 64 62     93%     29.61   0    
May 18 15:53 ENE 5 10 Light Rain OVC100 65 62     90%     29.61 29.59 0 0  
May 18 14:53 6 4 Rain and Fog/Mist FEW040 OVC095 64 61     90%     29.64 29.61 0    
May 18 14:24 WNW 7 6 Light Rain and Fog/Mist FEW055 SCT070 OVC100 64 61     90%     29.64   0    
May 18 14:05 Calm 2 Rain and Fog/Mist SCT055 OVC070 63 61     93%     29.66   0    
May 18 13:53 NE 5 3 Rain and Fog/Mist SCT055 BKN070 OVC090 63 60     90%     29.67 29.64 0    
May 18 13:51 ENE 6 3 Rain and Fog/Mist SCT055 OVC070 63 61     94%     29.67   0    
May 18 13:39 WSW 10 2.5 Heavy Rain and Fog/Mist FEW029 BKN055 OVC090 63 60     90%     29.69   0    
May 18 13:29 WSW 7 2 Thunderstorms and Rain and Fog/Mist FEW023 BKN046 OVC075 64 60     87%     29.67   0    
May 18 13:18 SW 15 2 Thunderstorms and Rain and Fog/Mist FEW013 BKN029 OVC038 64 61     90%     29.68   0    
May 18 13:11 WSW 11 1.25 Heavy Rain and Fog/Mist FEW012 SCT025 OVC036 64 60     87%     29.66   0    
May 18 13:01   2 Rain and Fog/Mist FEW012 BKN032 OVC110 64 60     87%     29.65   0    
May 18 12:53 S 9 4 Rain and Fog/Mist SCT036 BKN044 OVC110 64 60     87%     29.64 29.61 0   0
May 18 12:37 S 9 10 Light Rain FEW012 BKN095 OVC110 65 60     84%     29.61   0    
May 18 12:29 SSE 9 5 Thunderstorms and Rain FEW010 BKN075 OVC110 65 60     84%     29.59   0    
May 18 12:23 SE 8 2 Thunderstorms and Rain and Fog/Mist FEW011 BKN021 OVC100 65 61     87%     29.59   0    
May 18 12:16 SSE 15 0.5 Thunderstorms and Heavy Rain and Fog FEW006 OVC021 64 62     93%     29.63   0    
May 18 12:11 SE 23 0.25 Thunderstorms and Heavy Rain and Fog SCT013 BKN018 OVC022 64 61     90%     29.66   0    
May 18 12:04 SE 17 1.75 Thunderstorms and Rain and Fog/Mist FEW015 BKN022 OVC036 64 61     90%     29.63   0    
May 18 11:53 ESE 14 10 Cloudy BKN022 OVC035 65 60     84%     29.61 29.58 0    
May 18 10:53 ESE 14 10 Light Rain BKN026 OVC031 66 60     81%     29.63 29.61 0    
May 18 09:53 ESE 14 10 Cloudy OVC029 66 60     81%     29.66 29.63   0  
May 18 08:53 ESE 9 10 Cloudy OVC037 64 60     87%     29.65 29.62 0    
May 18 07:53 ESE 5 10 Mostly Cloudy BKN050 BKN060 63 60     90%     29.68 29.65 0    
May 18 06:53 Calm 9 Light Rain OVC047 62 59     90%     29.72 29.69 0   0
May 18 06:29 N 3 10 Light Rain FEW036 BKN046 OVC055 62 58     86%     29.71   0    
May 18 06:15 NW 3 7 Light Rain BKN036 BKN050 OVC060 61 58     90%     29.7   0    
May 18 06:00 W 6 2.5 Thunderstorms and Heavy Rain and Fog/Mist BKN036 OVC042 62 58     86%     29.71   0    
May 18 05:53 WNW 8 7 Light Rain BKN036 OVC042 62 58     86%     29.7 29.67 0    
May 18 05:50 WNW 9 6 Light Rain and Fog/Mist OVC036 63 57     83%     29.69   0    
May 18 05:30 NW 10 7 Light Rain OVC032 62 58     86%     29.7   0    
May 18 05:02   10 Cloudy OVC027 68 56     65%     29.69        
May 18 04:53   10 Cloudy BKN027 OVC036 73 63     71%   73 29.68 29.65      
May 18 04:30 SSW 13 10 Cloudy BKN027 BKN033 OVC041 73 63     71%   73 29.64        
May 18 03:53 S 17 10 Clear CLR 73 63     71%   73 29.62 29.58      
May 18 02:53 S 18 10 Cloudy OVC047 74 62     66%   74 29.62 29.58      
May 18 01:53 S 14 10 Clear CLR 74 62     66%   74 29.62 29.59      
May 18 00:53 S 20 10 Mostly Cloudy and Windy BKN060 74 61     64%   74 29.64 29.6      
May 17 23:53 S 15 10 Cloudy OVC065 74 61     64%   74 29.67 29.63      
May 17 22:53 SSE 13 10 Clear CLR 75 59     57%   75 29.66 29.62      
May 17 21:53 SSE 14 10 Clear CLR 75 60     60%   75 29.65 29.61      
May 17 20:53 SSE 15 10 Partly Cloudy SCT065 77 61     58%   77 29.65 29.62      
May 17 19:53 SSE 16 10 Clear CLR 79 61     54%   79 29.65 29.62      
May 17 18:53 SSE 18 10 Clear CLR 82 62     51%   83 29.65 29.62      
May 17 17:53 S 21 10 Clear and Windy CLR 83 59     44%   83 29.64 29.61      
May 17 16:53 S 22 10 Partly Cloudy and Windy SCT060 85 61     45%   85 29.66 29.63      
May 17 15:53 S 23 10 Mostly Clear and Windy FEW070 85 61     45%   85 29.69 29.65      
May 17 14:53 S 23 10 Mostly Clear and Windy FEW049 85 63     48%   86 29.7 29.66      
May 17 13:53 S 21 10 Partly Cloudy and Windy FEW047 SCT060 85 66     53%   87 29.71 29.67      
May 17 12:53 S 20 10 Mostly Cloudy and Windy SCT040 BKN048 83 66     57%   85 29.72 29.69      
May 17 11:53 SSW 20 10 Mostly Clear and Windy FEW035 82 66     58%   84 29.74 29.7      
May 17 10:53 S 21 10 Clear and Windy CLR 79 64     60%   79 29.75 29.71      
May 17 09:53 S 18 10 Clear CLR 78 64     62%   79 29.75 29.72      
May 17 08:53 SSW 17 10 Clear CLR 75 63     66%   75 29.77 29.73      
May 15 08:53 NW 7 10 Clear CLR 71 65     81%   72 29.99 29.97      
May 14 12:53 N 5 10 Partly Cloudy SCT031 84 68     59%   87 29.92 29.88      
May 14 08:53 SSW 14 10 Clear CLR 78 67     69%   79 29.91 29.88      
May 14 05:53 S 7 10 Clear CLR 72 65     79%   73 29.88 29.85      
May 13 09:53 S 14 10 Clear CLR 79 68     69%   80 29.93 29.9      
Notice The following observation data may not be complete
May 13 07:53 ESE 5 10 Clear CLR   66      %     29.95 29.92      
May 12 21:53 S 10 10 Clear CLR 78 69     74%   79 29.88 29.85      
May 12 09:53 S 14 10 Clear CLR 78 65     64%   79 29.86 29.83      
May 11 22:53 S 14 10 Clear CLR 78 62     58%   78 29.79 29.75      
Jun 11 01:53   10 Clear CLR 77 66     69%   78 29.78 29.74      
Jun 09 22:53 SSE 7 10 Clear CLR 73 62     68%   73 29.82 29.78      
Jun 09 09:53 SSW 11 10 Clear CLR 78 61     56%   78 29.93 29.9      
Jun 08 06:53 S 7 10 Clear CLR 57 54     89%     30.07 30.04      
Jun 07 09:53 5 10 Clear CLR 76 53     45%   75 30.13 30.1      
Jun 05 17:53 N 5 10 Clear CLR 90 62     40%   90 29.82 29.79